EHI
0 0 0 0 0 0 0 0 0 1 0 0 1 5 10 11 11 12 11 11 15 22 27 29 31 31 33 40 44 40 35 32 31 24 17 12 12 14 14 13 16 18 17 16
0 0 0 0 0 0 0 0 0 1 0 0 1 4 8 10 10 10 11 12 17 25 32 35 34 33 36 42 45 43 38 34 30 25 19 15 14 15 14 14 18 19 17 15
0 0 0 0 0 0 0 0 0 0 0 0 1 3 7 9 8 8 8 11 18 27 37 41 39 36 39 44 46 45 42 36 31 27 22 18 18 17 15 18 24 25 18 14
0 0 0 0 0 0 0 0 0 0 0 0 1 3 7 9 8 6 6 9 18 28 38 42 40 38 39 41 44 45 45 40 34 30 25 21 21 19 17 22 30 31 22 14
0 0 0 0 0 0 0 0 0 0 0 0 1 2 5 9 10 8 6 9 18 28 36 40 39 38 37 38 41 44 46 44 40 34 27 23 23 21 20 24 32 33 26 19
0 0 0 0 0 0 0 0 0 0 0 0 0 2 6 10 13 13 10 12 20 27 35 40 40 39 38 38 40 43 44 44 41 35 28 24 22 22 22 25 29 30 27 25
0 0 0 0 0 0 0 0 0 0 0 1 1 3 7 11 14 15 14 16 22 26 31 37 40 40 41 41 42 43 44 43 40 36 30 25 22 21 22 25 27 26 24 25
0 0 0 0 0 0 0 0 0 0 0 0 1 4 7 10 13 14 15 17 19 21 25 30 35 39 40 40 41 44 45 43 39 36 33 27 23 22 22 24 25 24 22 22
0 0 0 0 0 0 0 0 0 0 0 0 2 6 8 10 12 13 15 16 16 17 21 26 31 36 38 37 38 42 45 43 39 36 33 27 23 22 22 22 22 23 24 23
0 0 0 0 0 0 0 0 0 0 0 0 2 6 9 10 10 11 13 16 17 18 21 23 28 33 35 35 37 40 43 42 39 35 30 25 23 21 19 17 19 23 26 27
0 0 0 0 0 0 0 0 0 0 0 0 1 4 7 8 8 8 11 14 17 19 20 21 25 29 31 33 37 39 40 39 36 33 29 26 25 22 18 16 19 23 27 29
0 0 0 0 0 0 0 0 0 0 0 0 1 2 5 7 7 7 8 11 15 19 20 20 23 26 28 31 34 36 36 33 31 30 28 27 26 24 21 21 23 26 28 30
0 0 0 0 0 0 0 0 0 0 0 0 1 3 6 9 9 6 6 9 15 19 20 20 23 28 30 31 32 33 32 30 28 27 27 26 26 25 25 26 27 28 30 31
0 0 0 0 0 0 0 0 0 0 0 0 2 5 7 9 8 6 5 8 15 19 20 22 27 33 34 33 33 32 32 30 29 28 27 25 24 25 26 26 27 28 30 31
0 0 0 0 0 0 0 0 0 0 0 0 2 5 7 8 6 5 5 9 14 18 21 25 32 36 35 34 33 32 30 30 31 31 28 25 24 25 27 27 27 28 30 30
0 0 0 0 0 0 0 0 0 0 0 0 2 5 7 7 6 5 6 10 14 18 22 28 34 37 35 33 33 31 28 28 31 32 31 27 24 24 25 26 26 27 28 29
0 0 0 0 0 0 0 0 0 1 1 1 4 7 8 8 6 6 7 11 16 20 24 28 33 35 32 31 31 29 27 27 29 31 33 30 25 24 25 26 26 27 27 26
0 0 0 0 0 0 0 0 1 2 2 3 6 9 10 8 7 7 9 14 19 22 25 27 30 30 29 28 28 28 29 29 28 28 30 30 27 26 27 28 30 30 29 27
0 0 0 0 0 0 0 0 1 2 3 4 7 10 11 10 9 9 12 17 22 24 25 26 26 26 27 27 28 29 31 31 29 27 28 28 28 28 30 33 35 34 32 31
0 0 0 0 0 0 0 0 1 1 3 5 7 10 12 12 12 14 16 19 23 26 27 27 26 25 27 30 31 32 33 33 31 29 29 29 29 30 32 35 38 37 34 33
0 0 0 0 0 1 1 0 1 3 4 6 8 11 13 15 17 19 19 20 23 26 28 28 26 25 27 30 32 32 33 34 33 32 31 30 30 31 31 33 36 36 34 32
0 0 1 1 1 1 1 0 1 4 7 8 10 13 15 17 19 20 21 23 24 26 28 27 26 26 27 29 29 29 30 33 35 35 33 31 30 28 27 29 32 33 31 29
0 0 1 2 1 1 1 0 2 5 8 11 12 13 14 15 16 18 21 23 25 26 27 26 26 26 26 27 27 27 28 30 33 35 34 31 28 25 25 27 29 30 29 27
0 1 2 2 1 0 0 1 3 5 7 9 10 11 10 10 12 15 18 22 24 26 26 26 25 26 26 26 27 27 26 27 29 31 31 29 25 23 23 25 27 27 25 23
1 1 1 1 2 2 1 2 4 4 3 5 7 8 8 7 9 12 16 20 23 24 24 24 23 24 25 26 27 27 26 27 27 28 28 26 23 20 21 21 21 20 19 16
0 1 1 2 5 5 3 2 3 3 2 2 5 7 7 6 8 12 16 19 21 23 23 22 21 22 24 25 26 27 27 27 27 26 25 25 22 19 18 18 15 14 12 9
Wind_Speed
10 9 9 7 7 6 6 5 4 1 2 3 4 5 7 7 7 8 8 8 8 8 8 7 6 7 8 7 6 5 4 3 2 2 2 1 1 1 1 1 2 2 1 1
9 9 10 7 6 7 7 7 3 3 3 4 4 5 6 8 8 9 9 9 9 9 9 8 7 7 8 7 6 5 4 4 3 2 1 1 1 1 1 0 1 2 1 1
11 8 8 6 6 9 8 7 4 4 6 7 5 5 6 7 7 7 8 9 9 10 10 10 8 7 7 7 6 6 5 4 3 2 1 1 1 1 1 1 1 1 1 1
11 9 7 7 6 9 7 5 6 7 8 6 6 4 5 7 5 6 6 7 9 9 10 10 9 8 7 7 7 5 6 5 3 3 2 2 2 1 1 1 1 2 2 2
9 8 8 8 6 7 8 7 8 9 9 8 6 4 3 7 7 5 5 6 8 8 9 10 10 9 7 7 7 6 5 5 4 3 2 2 1 1 1 1 2 2 2 2
11 10 9 7 6 7 8 9 10 10 9 9 7 5 3 5 8 7 5 5 7 8 8 8 8 8 7 7 6 6 6 4 4 3 2 2 1 1 1 1 2 2 2 1
12 11 10 8 8 8 8 9 6 7 7 7 7 5 3 5 6 8 8 6 6 7 8 8 8 7 6 6 6 6 6 5 4 3 2 2 2 2 2 2 1 1 2 2
11 8 8 7 7 8 8 10 8 7 8 7 3 1 5 7 7 7 8 9 8 7 7 7 7 7 6 6 5 6 7 5 5 4 3 2 1 2 1 2 1 1 1 1
8 7 8 7 6 8 9 10 10 9 10 10 3 3 6 6 6 6 7 7 7 6 6 7 6 6 6 6 5 5 6 5 5 5 4 3 2 2 2 1 2 1 0 1
11 10 10 7 8 10 10 9 8 8 7 9 6 3 4 5 5 5 6 7 6 6 6 6 6 6 5 6 6 6 6 5 5 4 4 3 2 2 1 1 1 1 0 1
11 12 11 10 10 8 8 9 8 8 9 8 7 0 4 6 5 5 6 6 6 5 5 5 5 5 5 5 5 5 5 4 4 4 3 2 3 2 2 1 1 0 0 0
8 10 10 11 8 6 9 9 9 7 7 9 8 1 2 4 4 4 6 6 5 5 5 5 4 4 3 3 4 4 4 4 3 3 3 3 3 2 2 2 1 1 1 1
5 8 10 10 7 6 9 9 9 9 8 8 8 2 3 2 4 4 4 6 4 4 4 4 4 3 3 3 2 3 3 3 3 3 2 2 3 2 2 1 1 1 1 1
6 10 11 11 9 8 9 10 10 10 9 7 7 4 3 1 3 4 3 4 4 4 4 3 3 3 2 2 2 1 2 2 2 2 2 2 2 2 2 2 1 1 1 2
8 12 12 13 13 12 11 11 10 10 9 9 6 6 2 2 2 4 3 2 3 3 3 3 3 3 2 2 2 1 1 1 1 2 2 2 2 2 2 2 1 1 2 2
8 11 12 14 14 13 13 12 11 10 8 8 7 5 2 1 3 3 3 3 3 3 3 3 3 3 2 2 1 1 1 1 1 2 2 1 1 1 2 1 1 2 2 2
9 9 11 13 12 14 13 10 9 8 8 7 7 2 1 1 1 1 1 2 3 3 3 3 2 2 1 1 2 1 1 1 1 1 1 1 1 1 1 2 2 2 2 2
8 8 8 12 11 15 8 7 7 6 7 5 4 3 2 2 1 1 2 1 1 1 3 3 2 1 1 1 1 1 1 1 1 1 1 1 1 2 2 2 2 2 2 2
9 7 8 10 12 11 8 6 6 6 6 4 4 4 3 2 2 1 2 2 3 2 2 2 1 1 1 0 0 1 1 2 1 1 1 2 2 2 2 2 2 2 2 2
10 8 9 10 12 12 5 3 6 8 5 4 5 4 4 3 4 0 2 2 3 2 2 2 1 1 1 0 1 1 1 1 2 1 1 2 2 3 3 2 2 2 2 2
11 11 12 12 13 8 3 4 7 7 2 4 4 4 4 3 3 1 2 2 3 2 1 1 1 1 1 1 1 1 2 2 2 1 2 2 2 2 2 2 2 2 2 2
9 9 10 10 12 7 3 4 3 3 3 3 3 3 3 3 1 1 1 2 2 1 1 1 1 1 1 1 1 1 2 1 1 1 2 2 2 3 2 2 3 2 2 2
7 7 6 5 3 1 3 3 4 3 4 4 4 4 3 2 0 0 0 1 1 1 1 1 1 1 1 1 1 2 2 1 1 1 2 2 2 2 1 2 3 3 3 3
5 5 6 4 3 3 3 2 3 4 3 4 4 3 2 2 2 1 1 1 0 1 1 1 1 2 1 2 2 2 1 1 2 2 3 2 2 2 1 2 2 2 1 1
5 6 6 6 4 4 4 4 4 4 3 3 2 3 2 1 2 2 1 2 1 1 1 2 2 2 3 3 3 2 1 2 3 3 3 3 2 1 1 1 1 2 1 2
5 4 6 4 3 4 5 4 4 4 4 4 3 3 3 3 3 2 2 2 2 2 2 2 3 3 4 4 3 3 3 3 3 4 3 3 2 2 2 2 1 1 2 2
Wind_Direction
231 236 245 248 249 275 289 294 311 320 191 230 217 191 175 168 173 163 165 164 163 161 158 152 150 147 145 142 140 143 144 129 131 145 169 179 207 213 195 161 136 153 213 226
241 239 257 272 286 282 280 282 273 256 249 251 237 208 175 173 188 174 172 172 168 164 160 156 155 151 147 142 146 145 144 143 152 163 182 183 193 219 169 116 139 169 211 238
243 243 246 249 268 280 277 286 286 272 272 253 248 226 192 172 179 169 174 174 171 168 163 159 159 159 154 151 153 160 155 152 161 169 165 196 194 216 192 177 165 187 208 217
253 253 251 249 249 276 277 284 285 266 257 261 241 252 198 171 178 176 176 177 170 168 164 162 162 163 165 161 160 151 153 152 162 177 185 198 193 214 221 191 170 188 203 207
262 255 249 252 260 272 290 297 283 275 270 272 253 240 205 176 178 184 195 172 160 156 159 160 164 167 169 163 161 153 150 156 163 175 192 218 212 222 228 193 174 187 192 201
259 256 252 261 266 265 279 282 275 265 260 261 259 262 209 180 170 162 174 157 149 148 151 153 164 158 160 154 151 149 146 152 159 171 187 210 237 242 252 215 179 196 191 203
254 248 238 235 253 251 252 262 270 263 252 243 236 242 150 131 132 129 145 141 137 141 150 154 155 153 157 153 152 148 145 154 160 166 181 207 238 233 250 257 205 208 202 188
255 251 237 233 246 270 268 269 271 284 290 291 255 231 115 107 114 123 132 131 138 149 153 151 152 154 151 153 155 150 152 161 166 170 186 196 222 232 235 256 270 211 246 136
272 259 244 232 240 258 267 271 281 278 277 280 251 165 139 109 111 122 125 128 137 141 141 143 148 149 155 157 152 149 147 163 170 174 183 183 190 234 259 227 249 278 29 122
266 270 263 246 234 233 252 278 286 280 279 283 284 225 151 153 149 146 139 136 132 135 136 136 140 141 156 164 155 152 154 162 170 177 189 187 195 215 251 254 226 238 209 50
259 267 266 256 245 256 246 256 270 283 288 291 286 250 139 146 144 143 136 134 136 139 133 127 130 134 149 147 147 149 146 159 169 181 179 187 185 209 214 230 267 242 270 187
260 268 271 268 263 259 262 263 261 266 275 283 289 315 83 114 120 136 131 124 125 132 130 127 121 124 123 131 136 143 153 168 171 168 177 185 173 194 212 218 235 239 223 222
293 272 269 267 256 246 256 264 271 275 269 271 279 219 136 120 114 109 109 118 116 119 125 133 127 122 117 108 122 150 163 169 168 160 169 181 190 193 201 215 223 238 238 238
266 264 269 271 270 268 252 255 260 268 274 275 269 249 180 123 98 95 96 121 144 147 137 141 122 110 107 103 103 118 162 156 162 154 166 174 200 205 205 203 196 228 242 247
255 262 266 272 277 277 277 273 262 260 272 278 275 273 230 144 127 128 132 150 159 143 137 117 108 101 101 99 105 103 73 139 160 154 173 187 191 209 203 194 194 217 238 243
246 266 277 271 271 277 275 271 269 265 267 271 275 275 264 103 98 116 132 174 166 157 148 122 107 103 104 115 124 117 129 61 141 166 180 195 194 225 214 193 195 213 226 235
259 263 267 269 273 273 266 271 269 274 277 277 281 283 305 71 46 114 160 217 179 164 141 121 117 127 142 156 134 137 128 141 153 180 167 159 197 227 223 219 206 216 217 228
252 264 267 268 265 262 271 287 285 281 285 292 298 301 314 326 357 143 188 191 96 136 125 116 123 147 168 156 135 118 161 148 178 197 206 196 209 223 235 234 221 224 220 233
252 247 261 269 267 262 258 280 295 293 287 310 310 304 316 328 264 130 60 71 91 106 115 124 161 179 161 147 147 148 200 185 199 219 234 225 221 232 234 244 234 230 234 236
247 238 247 258 266 272 273 286 288 277 269 354 3 356 339 308 280 300 56 50 86 94 109 124 145 148 136 124 178 198 232 221 222 232 253 238 231 231 234 243 241 233 229 230
234 236 242 253 258 257 282 298 285 274 319 352 344 340 331 317 314 11 70 81 100 109 127 135 149 149 145 175 188 209 238 241 234 226 246 246 242 234 223 245 243 240 236 229
253 249 241 250 258 254 321 294 310 7 354 337 331 329 335 337 22 87 82 112 135 137 119 136 111 102 139 187 198 230 248 259 258 249 253 257 249 252 231 233 240 231 233 234
259 274 282 275 270 13 359 358 22 30 9 353 340 345 347 327 270 219 152 157 161 150 140 165 166 176 187 215 211 235 268 258 257 263 267 266 255 242 237 240 243 224 222 237
254 290 283 284 266 297 316 349 7 27 1 327 324 329 323 296 272 260 223 187 183 165 184 213 212 209 220 230 233 240 253 267 263 259 264 250 243 234 222 255 266 262 255 258
314 312 297 274 270 289 314 347 356 351 328 319 338 325 305 272 262 247 215 188 207 238 225 218 224 224 225 229 234 243 233 243 263 266 258 250 249 245 230 229 272 273 275 225
286 286 280 290 328 314 305 323 334 328 319 310 304 294 291 274 262 233 218 215 209 228 227 221 222 228 227 228 237 242 242 242 254 258 253 253 252 244 236 222 242 279 225 203